Location: Poughquag
(41.6090°N, 73.6820°W)
Time: 19:17:55
(UTC-04:00)

MOZHAYETS 4 - Pass Details

Date: 16 August 2024
Orbit: 650 x 668 km, 98.3° (Epoch: 15 September)

Event Time Altitude Azimuth Distance (km) Brightness Sun altitude
Exits shadow 04:55:37 - 184° (S) 2,832 10.6 -12.6°
Reaches altitude 10° 04:57:32 10° 190° (S) 2,089 9.9 -12.2°
Maximum altitude 05:01:51 42° 261° (W) 961 8.1 -11.6°
Drops below altitude 10° 05:06:13 10° 333° (NNW) 2,105 10.3 -10.8°
Sets 05:08:34 0° 340° (NNW) 3,023 11.2 -10.5°
